Simultaneous Nadir Overpasses (SNOs) Predictions

Prediction of SNOs between METOP-C and LANDSAT-8 Satellite Orbit:

Table of predicted SNOs for the next 14.0 days since TLE Epoch: 12/21/2024
Index Date (METOP-C) Time (METOP-C) Lat,Lon (METOP-C) SZA (METOP-C ) Date (LANDSAT-8) Time (LANDSAT-8) Lat,Lon (LANDSAT-8) SZA (LANDSAT-8 ) Distance(km) Time Diff (sec)
1 12/22/2024 08:14:32 -81.12, -83.88 73.51 12/22/2024 08:14:44 -81.11, -84.05 73.53 3.16 12
2 12/22/2024 09:05:11 81.14, 84.09 106.57 12/22/2024 09:04:09 81.14, 84.05 106.54 0.70 62
3 12/25/2024 03:48:53 -81.12, -17.43 73.59 12/25/2024 03:49:00 -81.11, -17.58 73.61 2.73 7
4 12/25/2024 04:39:32 81.14, 150.53 106.49 12/25/2024 04:38:25 81.14, 150.49 106.45 0.85 67
5 12/27/2024 22:33:00 80.64,-128.07 105.03 12/27/2024 22:34:14 80.40,-127.41 104.90 28.74 74
6 12/27/2024 23:23:14 -81.12, 48.89 73.75 12/27/2024 23:23:15 -81.12, 49.03 73.73 2.50 1
7 12/28/2024 00:13:52 81.15,-142.76 106.38 12/28/2024 00:12:40 81.15,-142.92 106.33 2.80 72
8 12/30/2024 18:06:54 81.10, -52.54 105.99 12/30/2024 18:08:03 81.10, -52.58 106.01 0.68 69
9 12/30/2024 18:57:33 -81.12, 115.48 73.94 12/30/2024 18:57:29 -81.12, 115.44 73.94 0.77 4
10 01/02/2025 13:41:14 81.10, 13.93 105.73 01/02/2025 13:42:17 81.10, 13.96 105.76 0.44 63



Historial Predications of SNOs between METOP-C and LANDSAT-8
